Weather in Solnechnoye

Russia / Amur Oblast     50°36′10″N   127°59′06″E
temp.,
°C
wind,
m/s
gust,
m/s
humid.,
%
clouds,
%
prec.,
mm/h
press.,
hPa
HPBL,
m
2 july, sat
sat200:00+20s227578 0.0 100811
03:00+19se227798 0.0 100712
06:00+20sse128026 0.0 100762
09:00+25s2368100 0.0 1006524
12:00+28s34565 0.0 10051423
15:00+29s445378 0.0 10031931
18:00+26se347228 0.6 1003113
21:00+22sse36874 0.9 100395
3 july, sun
sun300:00+20s34912 0.1 100364
03:00+19sse34931 0.1 100258
06:00+20sse23935 0.7 1003115
09:00+25sse227538 0.7 1002447
12:00+28se22605 0.0 10011052
15:00+30ese22520 0.0 10001412
18:00+28nnw0268100 0.3 100065
21:00+20wsw3889100 1.1 1001269
4 july, mon
mon400:00+19ene22905 0.0 100120
03:00+18s22944 0.0 100134
06:00+19s129295 0.0 100188
09:00+24se337650 0.0 1002540
12:00+28se336213 0.0 10011019
15:00+30se22562 0.0 10001247
18:00+29ese34663 0.0 1000895
21:00+23sse229049 1.3 100124
5 july, tue
tue500:00+20ssw229033 1.6 100232
03:00+19sse33877 2.1 100232
06:00+21sse23917 0.1 1002113
09:00+26sse457859 0.1 1002537
12:00+29s566551 0.4 1002897
15:00+29sse567085 2.9 1001794
18:00+27sse478287 4.3 1002283
21:00+24sse4108843 4.3 1002275
6 july, wed
wed600:00+21sse38963 0.0 1004209
03:00+20sse49975 0.0 1003210
06:00+21se3793100 0.0 1003230
09:00+25sse5680100 0.0 1003653
12:00+28s677086 0.4 10021260
15:00+29s7871100 0.6 10011235
18:00+28sse58792 0.8 1000818
21:00+24se5129274 1.3 1000259